Regional Weather Roundup
Issued by NWS

Home | Current Version | Previous Version | Graphics & Text | Print | Product List | Glossary On
Versions: 1 2 3 4 5 6 7 8 9 10 11 12 13 14 15 16 17 18 19 20 21 22 23 24 25 26 27 28 29 30 31 32 33 34 35 36 37 38 39 40 41 42 43 44 45 46 47 48 49 50
000
ASUS43 KMKX 280000
RWRWI

WISCONSIN REGIONAL WEATHER ROUNDUP
NATIONAL WEATHER SERVICE MILWAUKEE/SULLIVAN WI
700 PM CDT TUE SEP 27 2016

NOTE: "FAIR" INDICATES FEW OR NO CLOUDS BELOW 12,000 FEET WITH NO
SIGNIFICANT WEATHER AND/OR OBSTRUCTIONS TO VISIBILITY.

WIZ001-002-006>008-014>016-023>028-280100-
NORTHWEST WISCONSIN

CITY           SKY/WX    TMP DP  RH WIND       PRES   REMARKS
SUPERIOR ARPT  CLOUDY    50  45  84 N8        29.79S
ASHLAND        CLOUDY    50  46  86 NW5       29.76R
6HR MIN TEMP:  50; 6HR MAX TEMP:  52; 6HR PCP:  0.01;

HAYWARD        CLOUDY    48  45  89 CALM      29.78R
6HR MIN TEMP:  47; 6HR MAX TEMP:  50; 6HR PCP:  0.10;

SIREN          CLOUDY    47  45  90 NW5       29.81R
CUMBERLAND     LGT RAIN  45  43  93 NW12      29.79R
RICE LAKE      LGT RAIN  48  45  89 W7        29.81R
CHETEK         NOT AVBL
LADYSMITH      CLOUDY    48  46  92 NW10      29.77R FOG
EAU CLAIRE     NOT AVBL
MENOMONIE      RAIN      49  49 100 NW9       29.80R
NEW RICHMOND   LGT RAIN  48  47  97 NW9       29.82R
OSCEOLA        DRIZZLE   49  49 100 N6        29.85R
$$

WIZ003>005-009-010-017-018-280100-
NORTH CENTRAL WISCONSIN

CITY           SKY/WX    TMP DP  RH WIND       PRES   REMARKS
MANITOWISH WTR NOT AVBL
ARBOR VITAE    CLOUDY    49  48  95 NW5       29.71R
WOODRUFF       CLOUDY    49  48  95 NW5       29.71R
RHINELANDER    CLOUDY    48  48 100 NW5       29.72R FOG
6HR MIN TEMP:  48; 6HR MAX TEMP:  50; 6HR PCP:  0.05;

EAGLE RIVER    CLOUDY    47  47  98 NW9       29.70R
LAND O LAKES   DRIZZLE   47  47  97 NW6       29.71R
PHILLIPS       CLOUDY    46  46  98 NW3       29.73R
TOMAHAWK       CLOUDY    46  45  93 NW5       29.72S
MEDFORD        CLOUDY    46  46 100 NW8       29.74R
MERRILL        DRIZZLE   48  48 100 NW6       29.73R
$$

WIZ029-030-035-036-043>047-280100-
CENTRAL WISCONSIN

CITY           SKY/WX    TMP DP  RH WIND       PRES   REMARKS
WAUSAU         CLOUDY    49  47  93 W8        29.72R
6HR MIN TEMP:  49; 6HR MAX TEMP:  51; 6HR PCP:  0.14;

MOSINEE        CLOUDY    48  48 100 W7        29.74R
MARSHFIELD     LGT RAIN  49  45  86 NW9       29.75R
6HR MIN TEMP:  49; 6HR MAX TEMP:  53; 6HR PCP:  0.02;

STEVENS POINT  LGT RAIN  47  47  99 W8        29.74S
WAUPACA        LGT RAIN  52  51  94 W6        29.74S
WAUTOMA        LGT RAIN  50  48  93 W10       29.76R
6HR MIN TEMP:  50; 6HR MAX TEMP:  56;

WISC RAPIDS    LGT RAIN  49  48  97 NW7       29.76S
6HR MIN TEMP:  49; 6HR MAX TEMP:  55; 6HR PCP:  0.12;

CAMP DOUGLAS   CLOUDY    49  46  92 W12       29.78R
6HR MIN TEMP:  49; 6HR MAX TEMP:  55; 6HR PCP:  0.07;

$$

WIZ011>013-019>022-031-037>040-048>050-280100-
NORTHEAST WISCONSIN

CITY           SKY/WX    TMP DP  RH WIND       PRES   REMARKS
ANTIGO         CLOUDY    47  46  98 CALM      29.71R
SHAWANO        CLOUDY    52  49  88 W5        29.71S
OCONTO         NOT AVBL
STURGEON BAY   MOCLDY    52  49  89 W9        29.70R
6HR MIN TEMP:  52; 6HR MAX TEMP:  55; 6HR PCP:  0.01;

GREEN BAY      LGT RAIN  51  51 100 W7        29.72R
6HR MIN TEMP:  51; 6HR MAX TEMP:  60; 6HR PCP:  0.03;

MANITOWOC      NOT AVBL
APPLETON       LGT RAIN  50  50 100 W10       29.72S
CLINTONVILLE   NOT AVBL
OSHKOSH        LGT RAIN  51  47  86 W7        29.74S
6HR MIN TEMP:  51; 6HR MAX TEMP:  57; 6HR PCP:  0.04;

$$

WIZ032>034-041-042-053>061-280100-
SOUTHWEST WISCONSIN

CITY           SKY/WX    TMP DP  RH WIND       PRES   REMARKS
LA CROSSE      LGT RAIN  53  48  83 N9        29.80R
6HR MIN TEMP:  53; 6HR MAX TEMP:  68; 6HR PCP:  0.01;

SPARTA         LGT RAIN  49  48  97 NW6       29.80R
VIROQUA        MOCLDY    52  44  75 N8        29.78R
BOSCOBEL       CLOUDY    61  40  45 N5        29.76R
6HR MIN TEMP:  61; 6HR MAX TEMP:  69; 6HR PCP: TRACE;

PRAIRIE DU CHI CLOUDY    63  31  30 W9        29.75S
PLATTEVILLE    PTCLDY    61  38  43 NW5       29.75F
$$

WIZ056-057-062-063-064-067-068-280100-
SOUTH CENTRAL WISCONSIN

CITY           SKY/WX    TMP DP  RH WIND       PRES   REMARKS
REEDSBURG      NOT AVBL
BARABOO/DELLS  LGT RAIN  49  46  87 NW7       29.77S
LONE ROCK      NOT AVBL
MINERAL POINT  PTCLDY    61  36  39 NW3       29.76R
MADISON        CLOUDY    52  46  80 N13       29.77R
6HR MIN TEMP:  52; 6HR MAX TEMP:  61; 6HR PCP: TRACE;

MIDDLETON      CLOUDY    55  48  77 N6        29.78R
WATERTOWN      LGT RAIN  51  50  98 N6        29.76S
MONROE         CLOUDY    61  34  36 W8        29.75S
JANESVILLE     CLOUDY    61  41  48 W3        29.74R
$$

WIZ051-052-058>065-066-070>072-280100-
SOUTHEAST WISCONSIN

CITY           SKY/WX    TMP DP  RH WIND       PRES   REMARKS
MILWAUKEE      LGT RAIN  55  47  74 NW7       29.77R
6HR MIN TEMP:  55; 6HR MAX TEMP:  63; 6HR PCP:  0.01;

WAUKESHA       LGT RAIN  50  46  87 NW7       29.78R
MILWAUKEE/TIMM RAIN      54  46  76 W6        29.77R
RACINE         LGT RAIN  55  48  77 N5        29.78R
6HR MIN TEMP:  55; 6HR MAX TEMP:  64; 6HR PCP: TRACE;

BURLINGTON     CLOUDY    54  45  72 N6        29.76R
KENOSHA        CLOUDY    57  47  69 N7        29.76R
6HR MIN TEMP:  57; 6HR MAX TEMP:  67;

FOND DU LAC    LGT RAIN  51  47  86 W8        29.76R
6HR MIN TEMP:  51; 6HR MAX TEMP:  57; 6HR PCP:  0.03;

SHEBOYGAN      LGT RAIN  52  46  80 W7        29.75R
6HR MIN TEMP:  52; 6HR MAX TEMP:  58; 6HR PCP:  0.01;

WEST BEND      RAIN      52  45  76 W8        29.76R
JUNEAU         DRIZZLE   50  47  90 W6        29.77S
$$

LSZ147-162-280100-
LAKE SUPERIOR

STATION/POSITION TIME  TEMP    WIND        PRES    WAVE
                       AIR SEA DIR/SP/G            HT/PER
                 (UTC) (F)     (DEG/KT/KT) (MB)    (FT/S)
W MID LAKE BUOY  2250   53 51  300/ 10/ 12 1004.9R   3/ 4
DEVILS ISLAND    2300   52     320/ 13/ 15 1006.9R
SAXON HARBOR     2300   54     280/  7/ 15 1006.8R
$$

LMZ867-665-643>646-280100-
LAKE MICHIGAN

STATION/POSITION TIME  TEMP    WIND        PRES    WAVE
                       AIR SEA DIR/SP/G            HT/PER
                 (UTC) (F)     (DEG/KT/KT) (MB)    (FT/S)
CHAMBERS ISLAND  2300   53     250/  5/ 12 1004.4R
N MID LAKE BUOY  2250   55 66  250/ 16/ 19 1003.4R   4/ 6
NORTHPORT PIER   2300   53     260/  4/  7 1004.4R
SISTER BAY       2208   55     300/ 18/ 20   N/A
ALGOMA LAKESHORE 2202          270/  8/ 14   N/A
KEWAUNEE LAKESHO 2300   53     270/  8/ 12 1005.4R
SHEBOYGAN LAKESH 2300   56     290/ 14/ 18 1006.7R
PORT WASHINGTON  2340   56     290/  5/  9 1008.5R
ATWATER BUOY     2300   56 53  270/  6/  8 1007.9R
MILWAUKEE LAKESH 2310   56     290/  8/ 11   N/A
S MID LAKE BUOY  2250   61 70  320/ 16/ 19 1006.8R   3/ 5
KENOSHA   LAKESH 2300   60     340/ 11/ 12 1007.5R
$$

TC  - TEMPERATURE IN CELSIUS
VSB - VISIBILITY IN STATUTE MILES
WCI - WIND CHILL INDEX
HX  - HEAT INDEX





USA.gov is the U.S. government's official web portal to all federal, state and local government web resources and services.